Volver al catálogo

STARLINK-6129

ActivoComunicacionesVLEO
NORAD 57116·PAYLOAD·🇺🇸 United States

Lanzado Jun 23, 2023 desde Cape Canaveral Space Force Station

Loading…

Próximos Pases (próximas 24 horas)

TLE

ActualizadoSource: CelesTrak SupGP

Época: Sep 15, 2026, 02:40 UTC

1 57116C 23090R   26258.11159722  .00012528  00000+0  45373-3 0  2585
2 57116  43.0017 291.4803 0001776 269.5043 167.2927 15.27574757    19

Sigue STARLINK-6129 en tiempo real con AllMySat

Download on the App Store